TimeEST,TemperatureF,Dew PointF,Humidity,Sea Level PressureIn,VisibilityMPH,Wind Direction,Wind SpeedMPH,Gust SpeedMPH,PrecipitationIn,Events,Conditions,WindDirDegrees,DateUTC
12:51 AM,48.0,25.0,41,30.05,10.0,WSW,11.5,-,N/A,,Clear,240,2013-01-01 05:51:00
1:51 AM,48.0,25.0,41,30.05,10.0,SW,13.8,-,N/A,,Clear,230,2013-01-01 06:51:00
2:51 AM,48.0,26.1,42,30.04,10.0,WSW,8.1,-,N/A,,Clear,240,2013-01-01 07:51:00
3:51 AM,46.0,27.0,47,30.01,10.0,SW,9.2,-,N/A,,Mostly Cloudy,220,2013-01-01 08:51:00
4:51 AM,46.0,28.0,50,30.01,10.0,SW,10.4,-,N/A,,Mostly Cloudy,220,2013-01-01 09:51:00
5:51 AM,46.9,27.0,46,30.01,10.0,SW,9.2,-,N/A,,Overcast,230,2013-01-01 10:51:00
6:51 AM,46.9,28.0,48,30.02,10.0,West,4.6,-,N/A,,Overcast,260,2013-01-01 11:51:00
7:51 AM,46.9,30.0,52,30.02,10.0,WSW,4.6,-,0.00,,Overcast,250,2013-01-01 12:51:00
8:51 AM,45.0,35.1,68,30.02,9.0,West,3.5,-,0.01,Rain,Light Rain,260,2013-01-01 13:51:00
9:51 AM,45.0,37.0,74,30.03,10.0,SSW,9.2,-,0.02,Rain,Light Rain,210,2013-01-01 14:51:00
10:51 AM,45.0,37.9,76,30.03,10.0,SW,10.4,-,0.01,,Overcast,220,2013-01-01 15:51:00
11:51 AM,46.0,37.9,73,29.99,10.0,SW,11.5,-,0.00,,Clear,230,2013-01-01 16:51:00
12:51 PM,48.0,37.0,66,29.96,10.0,WSW,8.1,-,N/A,,Overcast,250,2013-01-01 17:51:00
1:51 PM,48.0,37.9,68,29.95,10.0,Variable,3.5,-,0.00,,Overcast,0,2013-01-01 18:51:00
2:51 PM,48.0,39.0,71,29.93,10.0,SW,9.2,-,0.00,,Overcast,230,2013-01-01 19:51:00
3:51 PM,48.0,39.9,74,29.89,10.0,SSW,15.0,-,N/A,,Overcast,210,2013-01-01 20:51:00
4:51 PM,48.0,39.9,74,29.95,10.0,WSW,8.1,-,N/A,,Overcast,250,2013-01-01 21:51:00
5:51 PM,46.9,41.0,80,29.96,10.0,SW,4.6,-,0.00,,Overcast,230,2013-01-01 22:51:00
6:51 PM,46.9,41.0,80,29.97,10.0,Calm,Calm,-,N/A,,Overcast,0,2013-01-01 23:51:00
7:51 PM,46.0,41.0,83,29.98,10.0,Calm,Calm,-,N/A,,Overcast,0,2013-01-02 00:51:00
8:51 PM,45.0,42.1,90,29.96,10.0,SW,3.5,-,0.00,,Overcast,220,2013-01-02 01:51:00
9:51 PM,46.0,42.1,86,29.98,10.0,Calm,Calm,-,0.01,Rain,Light Rain,0,2013-01-02 02:51:00
10:51 PM,45.0,43.0,93,30.00,5.0,Calm,Calm,-,0.04,Rain,Light Rain,0,2013-01-02 03:51:00
11:36 PM,44.6,42.8,93,30.00,6.0,North,4.6,-,0.05,Rain,Light Rain,10,2013-01-02 04:36:00
11:51 PM,44.1,41.0,89,29.99,7.0,NNE,10.4,-,0.06,Rain,Light Rain,30,2013-01-02 04:51:00